Year,Month,Day,Hour,Minute,Value (Times are PST for temperature in C)
2012,07,29,00,00,14.50
2012,07,29,00,01,14.50
2012,07,29,00,02,14.40
2012,07,29,00,03,14.30
2012,07,29,00,04,14.20
2012,07,29,00,05,14.20
2012,07,29,00,06,14.10
2012,07,29,00,07,14.00
2012,07,29,00,08,14.00
2012,07,29,00,09,13.90
2012,07,29,00,10,13.90
2012,07,29,00,11,13.80
2012,07,29,00,12,13.80
2012,07,29,00,13,13.80
2012,07,29,00,14,13.80
2012,07,29,00,15,13.70
2012,07,29,00,16,13.70
2012,07,29,00,17,13.70
2012,07,29,00,18,13.70
2012,07,29,00,19,13.70
2012,07,29,00,20,13.60
2012,07,29,00,21,13.60
2012,07,29,00,22,13.60
2012,07,29,00,23,13.60
2012,07,29,00,24,13.50
2012,07,29,00,25,13.50
2012,07,29,00,26,13.50
2012,07,29,00,27,13.50
2012,07,29,00,28,13.50
2012,07,29,00,29,13.50
2012,07,29,00,30,13.40
2012,07,29,00,31,13.40
2012,07,29,00,32,13.40
2012,07,29,00,33,13.40
2012,07,29,00,34,13.40
2012,07,29,00,35,13.40
2012,07,29,00,36,13.40
2012,07,29,00,37,13.40
2012,07,29,00,38,13.30
2012,07,29,00,39,13.30
2012,07,29,00,40,13.30
2012,07,29,00,41,13.30
2012,07,29,00,42,13.30
2012,07,29,00,43,13.30
2012,07,29,00,44,13.30
2012,07,29,00,45,13.30
2012,07,29,00,46,13.20
2012,07,29,00,47,13.20
2012,07,29,00,48,13.20
2012,07,29,00,49,13.20
2012,07,29,00,50,13.20
2012,07,29,00,51,13.10
2012,07,29,00,52,13.10
2012,07,29,00,53,13.10
2012,07,29,00,54,13.10
2012,07,29,00,55,13.10
2012,07,29,00,56,13.10
2012,07,29,00,57,13.10
2012,07,29,00,58,13.10
2012,07,29,00,59,13.10
2012,07,29,01,00,13.10
2012,07,29,01,01,13.00
2012,07,29,01,02,13.00
2012,07,29,01,03,13.00
2012,07,29,01,04,13.00
2012,07,29,01,05,13.00
2012,07,29,01,06,13.00
2012,07,29,01,07,13.00
2012,07,29,01,08,13.00
2012,07,29,01,09,12.90
2012,07,29,01,10,12.90
2012,07,29,01,11,12.90
2012,07,29,01,12,12.90
2012,07,29,01,13,12.90
2012,07,29,01,14,12.80
2012,07,29,01,15,12.80
2012,07,29,01,16,12.80
2012,07,29,01,17,12.80
2012,07,29,01,18,12.70
2012,07,29,01,19,12.70
2012,07,29,01,20,12.70
2012,07,29,01,21,12.70
2012,07,29,01,22,12.70
2012,07,29,01,23,12.60
2012,07,29,01,24,12.60
2012,07,29,01,25,12.60
2012,07,29,01,26,12.60
2012,07,29,01,27,12.50
2012,07,29,01,28,12.50
2012,07,29,01,29,12.50
2012,07,29,01,30,12.40
2012,07,29,01,31,12.40
2012,07,29,01,32,12.40
2012,07,29,01,33,12.30
2012,07,29,01,34,12.30
2012,07,29,01,35,12.30
2012,07,29,01,36,12.30
2012,07,29,01,37,12.20
2012,07,29,01,38,12.20
2012,07,29,01,39,12.20
2012,07,29,01,40,12.20
2012,07,29,01,41,12.20
2012,07,29,01,42,12.10
2012,07,29,01,43,12.10
2012,07,29,01,44,12.10
2012,07,29,01,45,12.10
2012,07,29,01,46,12.10
2012,07,29,01,47,12.10
2012,07,29,01,48,12.10
2012,07,29,01,49,12.10
2012,07,29,01,50,12.00
2012,07,29,01,51,12.00
2012,07,29,01,52,12.00
2012,07,29,01,53,12.00
2012,07,29,01,54,12.00
2012,07,29,01,55,12.00
2012,07,29,01,56,12.00
2012,07,29,01,57,12.00
2012,07,29,01,58,12.00
2012,07,29,01,59,11.90
2012,07,29,02,00,11.90
2012,07,29,02,01,11.90
2012,07,29,02,02,11.90
2012,07,29,02,03,11.90
2012,07,29,02,04,11.90
2012,07,29,02,05,11.90
2012,07,29,02,06,11.80
2012,07,29,02,07,11.80
2012,07,29,02,08,11.80
2012,07,29,02,09,11.80
2012,07,29,02,10,11.80
2012,07,29,02,11,11.70
2012,07,29,02,12,11.70
2012,07,29,02,13,11.70
2012,07,29,02,14,11.70
2012,07,29,02,15,11.70
2012,07,29,02,16,11.60
2012,07,29,02,17,11.60
2012,07,29,02,18,11.60
2012,07,29,02,19,11.60
2012,07,29,02,20,11.60
2012,07,29,02,21,11.60
2012,07,29,02,22,11.60
2012,07,29,02,23,11.60
2012,07,29,02,24,11.60
2012,07,29,02,25,11.60
2012,07,29,02,26,11.60
2012,07,29,02,27,11.60
2012,07,29,02,28,11.60
2012,07,29,02,29,11.50
2012,07,29,02,30,11.50
2012,07,29,02,31,11.50
2012,07,29,02,32,11.50
2012,07,29,02,33,11.40
2012,07,29,02,34,11.50
2012,07,29,02,35,11.50
2012,07,29,02,36,11.50
2012,07,29,02,37,11.50
2012,07,29,02,38,11.50
2012,07,29,02,39,11.50
2012,07,29,02,40,11.50
2012,07,29,02,41,11.50
2012,07,29,02,42,11.50
2012,07,29,02,43,11.40
2012,07,29,02,44,11.40
2012,07,29,02,45,11.40
2012,07,29,02,46,11.40
2012,07,29,02,47,11.40
2012,07,29,02,48,11.40
2012,07,29,02,49,11.50
2012,07,29,02,50,11.50
2012,07,29,02,51,11.40
2012,07,29,02,52,11.40
2012,07,29,02,53,11.40
2012,07,29,02,54,11.40
2012,07,29,02,55,11.40
2012,07,29,02,56,11.40
2012,07,29,02,57,11.40
2012,07,29,02,58,11.40
2012,07,29,02,59,11.30
2012,07,29,03,00,11.30
2012,07,29,03,01,11.30
2012,07,29,03,02,11.30
2012,07,29,03,03,11.20
2012,07,29,03,04,11.20
2012,07,29,03,05,11.20
2012,07,29,03,06,11.20
2012,07,29,03,07,11.20
2012,07,29,03,08,11.10
2012,07,29,03,09,11.10
2012,07,29,03,10,11.10
2012,07,29,03,11,11.10
2012,07,29,03,12,11.00
2012,07,29,03,13,11.00
2012,07,29,03,14,11.00
2012,07,29,03,15,11.00
2012,07,29,03,16,11.00
2012,07,29,03,17,10.90
2012,07,29,03,18,10.90
2012,07,29,03,19,10.90
2012,07,29,03,20,10.90
2012,07,29,03,21,10.90
2012,07,29,03,22,10.90
2012,07,29,03,23,10.90
2012,07,29,03,24,10.80
2012,07,29,03,25,10.80
2012,07,29,03,26,10.80
2012,07,29,03,27,10.80
2012,07,29,03,28,10.80
2012,07,29,03,29,10.80
2012,07,29,03,30,10.80
2012,07,29,03,31,10.80
2012,07,29,03,32,10.80
2012,07,29,03,33,10.80
2012,07,29,03,34,10.70
2012,07,29,03,35,10.70
2012,07,29,03,36,10.70
2012,07,29,03,37,10.70
2012,07,29,03,38,10.70
2012,07,29,03,39,10.60
2012,07,29,03,40,10.60
2012,07,29,03,41,10.60
2012,07,29,03,42,10.60
2012,07,29,03,43,10.60
2012,07,29,03,44,10.60
2012,07,29,03,45,10.60
2012,07,29,03,46,10.60
2012,07,29,03,47,10.60
2012,07,29,03,48,10.60
2012,07,29,03,49,10.60
2012,07,29,03,50,10.70
2012,07,29,03,51,10.70
2012,07,29,03,52,10.70
2012,07,29,03,53,10.70
2012,07,29,03,54,10.70
2012,07,29,03,55,10.70
2012,07,29,03,56,10.60
2012,07,29,03,57,10.60
2012,07,29,03,58,10.60
2012,07,29,03,59,10.60
2012,07,29,04,00,10.60
2012,07,29,04,01,10.60
2012,07,29,04,02,10.60
2012,07,29,04,03,10.60
2012,07,29,04,04,10.60
2012,07,29,04,05,10.60
2012,07,29,04,06,10.60
2012,07,29,04,07,10.60
2012,07,29,04,08,10.60
2012,07,29,04,09,10.60
2012,07,29,04,10,10.60
2012,07,29,04,11,10.60
2012,07,29,04,12,10.60
2012,07,29,04,13,10.60
2012,07,29,04,14,10.50
2012,07,29,04,15,10.50
2012,07,29,04,16,10.50
2012,07,29,04,17,10.40
2012,07,29,04,18,10.40
2012,07,29,04,19,10.40
2012,07,29,04,20,10.40
2012,07,29,04,21,10.40
2012,07,29,04,22,10.30
2012,07,29,04,23,10.30
2012,07,29,04,24,10.30
2012,07,29,04,25,10.30
2012,07,29,04,26,10.30
2012,07,29,04,27,10.30
2012,07,29,04,28,10.30
2012,07,29,04,29,10.30
2012,07,29,04,30,10.20
2012,07,29,04,31,10.20
2012,07,29,04,32,10.20
2012,07,29,04,33,10.20
2012,07,29,04,34,10.20
2012,07,29,04,35,10.20
2012,07,29,04,36,10.20
2012,07,29,04,37,10.20
2012,07,29,04,38,10.10
2012,07,29,04,39,10.10
2012,07,29,04,40,10.10
2012,07,29,04,41,10.10
2012,07,29,04,42,10.10
2012,07,29,04,43,10.10
2012,07,29,04,44,10.10
2012,07,29,04,45,10.10
2012,07,29,04,46,10.00
2012,07,29,04,47,10.00
2012,07,29,04,48,10.00
2012,07,29,04,49,10.00
2012,07,29,04,50,10.00
2012,07,29,04,51,10.00
2012,07,29,04,52,10.00
2012,07,29,04,53,10.00
2012,07,29,04,54,10.00
2012,07,29,04,55,10.00
2012,07,29,04,56,10.00
2012,07,29,04,57,10.00
2012,07,29,04,58,10.10
2012,07,29,04,59,10.10
2012,07,29,05,00,10.10
2012,07,29,05,01,10.10
2012,07,29,05,02,10.10
2012,07,29,05,03,10.10
2012,07,29,05,04,10.10
2012,07,29,05,05,10.10
2012,07,29,05,06,10.10
2012,07,29,05,07,10.10
2012,07,29,05,08,10.10
2012,07,29,05,09,10.10
2012,07,29,05,10,10.10
2012,07,29,05,11,10.00
2012,07,29,05,12,10.00
2012,07,29,05,13,10.00
2012,07,29,05,14,10.00
2012,07,29,05,15,10.00
2012,07,29,05,16,9.90
2012,07,29,05,17,9.90
2012,07,29,05,18,9.90
2012,07,29,05,19,9.90
2012,07,29,05,20,9.90
2012,07,29,05,21,9.90
2012,07,29,05,22,9.90
2012,07,29,05,23,9.90
2012,07,29,05,24,9.90
2012,07,29,05,25,9.90
2012,07,29,05,26,9.90
2012,07,29,05,27,9.80
2012,07,29,05,28,9.80
2012,07,29,05,29,9.80
2012,07,29,05,30,9.80
2012,07,29,05,31,9.80
2012,07,29,05,32,9.80
2012,07,29,05,33,9.70
2012,07,29,05,34,9.70
2012,07,29,05,35,9.70
2012,07,29,05,36,9.70
2012,07,29,05,37,9.70
2012,07,29,05,38,9.70
2012,07,29,05,39,9.70
2012,07,29,05,40,9.70
2012,07,29,05,41,9.60
2012,07,29,05,42,9.60
2012,07,29,05,43,9.60
2012,07,29,05,44,9.60
2012,07,29,05,45,9.60
2012,07,29,05,46,9.60
2012,07,29,05,47,9.60
2012,07,29,05,48,9.60
2012,07,29,05,49,9.60
2012,07,29,05,50,9.60
2012,07,29,05,51,9.60
2012,07,29,05,52,9.60
2012,07,29,05,53,9.60
2012,07,29,05,54,9.60
2012,07,29,05,55,9.60
2012,07,29,05,56,9.70
2012,07,29,05,57,9.70
2012,07,29,05,58,9.70
2012,07,29,05,59,9.80
2012,07,29,06,00,9.80
2012,07,29,06,01,9.80
2012,07,29,06,02,9.80
2012,07,29,06,03,9.80
2012,07,29,06,04,9.70
2012,07,29,06,05,9.70
2012,07,29,06,06,9.70
2012,07,29,06,07,9.70
2012,07,29,06,08,9.70
2012,07,29,06,09,9.70
2012,07,29,06,10,9.70
2012,07,29,06,11,9.70
2012,07,29,06,12,9.70
2012,07,29,06,13,9.70
2012,07,29,06,14,9.80
2012,07,29,06,15,9.80
2012,07,29,06,16,9.80
2012,07,29,06,17,9.80
2012,07,29,06,18,9.90
2012,07,29,06,19,9.90
2012,07,29,06,20,9.80
2012,07,29,06,21,9.80
2012,07,29,06,22,9.80
2012,07,29,06,23,9.80
2012,07,29,06,24,9.80
2012,07,29,06,25,9.80
2012,07,29,06,26,9.80
2012,07,29,06,27,9.80
2012,07,29,06,28,9.80
2012,07,29,06,29,9.80
2012,07,29,06,30,9.80
2012,07,29,06,31,9.80
2012,07,29,06,32,9.90
2012,07,29,06,33,9.90
2012,07,29,06,34,9.90
2012,07,29,06,35,9.90
2012,07,29,06,36,9.90
2012,07,29,06,37,9.90
2012,07,29,06,38,9.90
2012,07,29,06,39,9.90
2012,07,29,06,40,10.00
2012,07,29,06,41,10.00
2012,07,29,06,42,10.10
2012,07,29,06,43,10.10
2012,07,29,06,44,10.20
2012,07,29,06,45,10.30
2012,07,29,06,46,10.30
2012,07,29,06,47,10.40
2012,07,29,06,48,10.50
2012,07,29,06,49,10.50
2012,07,29,06,50,10.50
2012,07,29,06,51,10.50
2012,07,29,06,52,10.50
2012,07,29,06,53,10.50
2012,07,29,06,54,10.50
2012,07,29,06,55,10.50
2012,07,29,06,56,10.50
2012,07,29,06,57,10.50
2012,07,29,06,58,10.60
2012,07,29,06,59,10.60
2012,07,29,07,00,10.60
2012,07,29,07,01,10.60
2012,07,29,07,02,10.70
2012,07,29,07,03,10.70
2012,07,29,07,04,10.70
2012,07,29,07,05,10.70
2012,07,29,07,06,10.70
2012,07,29,07,07,10.80
2012,07,29,07,08,10.80
2012,07,29,07,09,10.80
2012,07,29,07,10,10.80
2012,07,29,07,11,10.90
2012,07,29,07,12,10.90
2012,07,29,07,13,10.90
2012,07,29,07,14,11.00
2012,07,29,07,15,11.00
2012,07,29,07,16,11.10
2012,07,29,07,17,11.10
2012,07,29,07,18,11.20
2012,07,29,07,19,11.20
2012,07,29,07,20,11.30
2012,07,29,07,21,11.30
2012,07,29,07,22,11.40
2012,07,29,07,23,11.40
2012,07,29,07,24,11.50
2012,07,29,07,25,11.50
2012,07,29,07,26,11.60
2012,07,29,07,27,11.60
2012,07,29,07,28,11.70
2012,07,29,07,29,11.70
2012,07,29,07,30,11.70
2012,07,29,07,31,11.80
2012,07,29,07,32,11.80
2012,07,29,07,33,11.90
2012,07,29,07,34,11.90
2012,07,29,07,35,12.00
2012,07,29,07,36,12.00
2012,07,29,07,37,12.00
2012,07,29,07,38,12.10
2012,07,29,07,39,12.10
2012,07,29,07,40,12.20
2012,07,29,07,41,12.20
2012,07,29,07,42,12.20
2012,07,29,07,43,12.30
2012,07,29,07,44,12.30
2012,07,29,07,45,12.30
2012,07,29,07,46,12.30
2012,07,29,07,47,12.30
2012,07,29,07,48,12.40
2012,07,29,07,49,12.40
2012,07,29,07,50,12.40
2012,07,29,07,51,12.50
2012,07,29,07,52,12.50
2012,07,29,07,53,12.60
2012,07,29,07,54,12.60
2012,07,29,07,55,12.70
2012,07,29,07,56,12.70
2012,07,29,07,57,12.80
2012,07,29,07,58,12.90
2012,07,29,07,59,12.90
2012,07,29,08,00,12.90
2012,07,29,08,01,13.00
2012,07,29,08,02,13.10
2012,07,29,08,03,13.10
2012,07,29,08,04,13.10
2012,07,29,08,05,13.20
2012,07,29,08,06,13.20
2012,07,29,08,07,13.20
2012,07,29,08,08,13.30
2012,07,29,08,09,13.30
2012,07,29,08,10,13.40
2012,07,29,08,11,13.50
2012,07,29,08,12,13.60
2012,07,29,08,13,13.70
2012,07,29,08,14,13.80
2012,07,29,08,15,13.80
2012,07,29,08,16,13.90
2012,07,29,08,17,13.90
2012,07,29,08,18,14.00
2012,07,29,08,19,14.10
2012,07,29,08,20,14.20
2012,07,29,08,21,14.30
2012,07,29,08,22,14.40
2012,07,29,08,23,14.50
2012,07,29,08,24,14.50
2012,07,29,08,25,14.60
2012,07,29,08,26,14.70
2012,07,29,08,27,14.70
2012,07,29,08,28,14.80
2012,07,29,08,29,15.00
2012,07,29,08,30,15.00
2012,07,29,08,31,15.00
2012,07,29,08,32,15.00
2012,07,29,08,33,15.20
2012,07,29,08,34,15.30
2012,07,29,08,35,15.50
2012,07,29,08,36,15.60
2012,07,29,08,37,15.80
2012,07,29,08,38,15.90
2012,07,29,08,39,16.10
2012,07,29,08,40,16.20
2012,07,29,08,41,16.30
2012,07,29,08,42,16.40
2012,07,29,08,43,16.50
2012,07,29,08,44,16.60
2012,07,29,08,45,16.70
2012,07,29,08,46,16.80
2012,07,29,08,47,16.80
2012,07,29,08,48,17.00
2012,07,29,08,49,17.10
2012,07,29,08,50,17.10
2012,07,29,08,51,17.20
2012,07,29,08,52,17.30
2012,07,29,08,53,17.30
2012,07,29,08,54,17.30
2012,07,29,08,55,17.30
2012,07,29,08,56,17.30
2012,07,29,08,57,17.40
2012,07,29,08,58,17.40
2012,07,29,08,59,17.50
2012,07,29,09,00,17.50
2012,07,29,09,01,17.50
2012,07,29,09,02,17.40
2012,07,29,09,03,17.40
2012,07,29,09,04,17.40
2012,07,29,09,05,17.40
2012,07,29,09,06,17.30
2012,07,29,09,07,17.30
2012,07,29,09,08,17.30
2012,07,29,09,09,17.30
2012,07,29,09,10,17.40
2012,07,29,09,11,17.40
2012,07,29,09,12,17.40
2012,07,29,09,13,17.40
2012,07,29,09,14,17.50
2012,07,29,09,15,17.50
2012,07,29,09,16,17.60
2012,07,29,09,17,17.70
2012,07,29,09,18,17.70
2012,07,29,09,19,17.70
2012,07,29,09,20,17.70
2012,07,29,09,21,17.70
2012,07,29,09,22,17.70
2012,07,29,09,23,17.70
2012,07,29,09,24,17.70
2012,07,29,09,25,17.80
2012,07,29,09,26,17.70
2012,07,29,09,27,17.70
2012,07,29,09,28,17.70
2012,07,29,09,29,17.60
2012,07,29,09,30,17.70
2012,07,29,09,31,17.70
2012,07,29,09,32,17.70
2012,07,29,09,33,17.60
2012,07,29,09,34,17.60
2012,07,29,09,35,17.70
2012,07,29,09,36,17.70
2012,07,29,09,37,17.70
2012,07,29,09,38,17.80
2012,07,29,09,39,17.80
2012,07,29,09,40,17.90
2012,07,29,09,41,18.00
2012,07,29,09,42,18.00
2012,07,29,09,43,17.90
2012,07,29,09,44,17.90
2012,07,29,09,45,17.90
2012,07,29,09,46,17.90
2012,07,29,09,47,17.90
2012,07,29,09,48,17.90
2012,07,29,09,49,18.00
2012,07,29,09,50,18.10
2012,07,29,09,51,18.20
2012,07,29,09,52,18.30
2012,07,29,09,53,18.30
2012,07,29,09,54,18.30
2012,07,29,09,55,18.30
2012,07,29,09,56,18.30
2012,07,29,09,57,18.30
2012,07,29,09,58,18.30
2012,07,29,09,59,18.30
2012,07,29,10,00,18.40
2012,07,29,10,01,18.40
2012,07,29,10,02,18.40
2012,07,29,10,03,18.40
2012,07,29,10,04,18.40
2012,07,29,10,05,18.40
2012,07,29,10,06,18.30
2012,07,29,10,07,18.30
2012,07,29,10,08,18.30
2012,07,29,10,09,18.30
2012,07,29,10,10,18.20
2012,07,29,10,11,18.20
2012,07,29,10,12,18.20
2012,07,29,10,13,18.30
2012,07,29,10,14,18.40
2012,07,29,10,15,18.30
2012,07,29,10,16,18.30
2012,07,29,10,17,18.20
2012,07,29,10,18,18.30
2012,07,29,10,19,18.30
2012,07,29,10,20,18.30
2012,07,29,10,21,18.30
2012,07,29,10,22,18.30
2012,07,29,10,23,18.40
2012,07,29,10,24,18.40
2012,07,29,10,25,18.50
2012,07,29,10,26,18.60
2012,07,29,10,27,18.60
2012,07,29,10,28,18.70
2012,07,29,10,29,18.80
2012,07,29,10,30,18.80
2012,07,29,10,31,18.80
2012,07,29,10,32,18.80
2012,07,29,10,33,18.80
2012,07,29,10,34,18.80
2012,07,29,10,35,18.80
2012,07,29,10,36,18.70
2012,07,29,10,37,18.70
2012,07,29,10,38,18.70
2012,07,29,10,39,18.60
2012,07,29,10,40,18.60
2012,07,29,10,41,18.80
2012,07,29,10,42,18.80
2012,07,29,10,43,18.80
2012,07,29,10,44,18.80
2012,07,29,10,45,18.90
2012,07,29,10,46,19.00
2012,07,29,10,47,19.00
2012,07,29,10,48,19.00
2012,07,29,10,49,18.90
2012,07,29,10,50,18.90
2012,07,29,10,51,18.90
2012,07,29,10,52,18.90
2012,07,29,10,53,18.90
2012,07,29,10,54,18.90
2012,07,29,10,55,18.90
2012,07,29,10,56,18.80
2012,07,29,10,57,18.80
2012,07,29,10,58,18.70
2012,07,29,10,59,18.80
2012,07,29,11,00,18.80
2012,07,29,11,01,18.90
2012,07,29,11,02,19.00
2012,07,29,11,03,19.00
2012,07,29,11,04,19.00
2012,07,29,11,05,19.10
2012,07,29,11,06,19.20
2012,07,29,11,07,19.20
2012,07,29,11,08,19.30
2012,07,29,11,09,19.40
2012,07,29,11,10,19.40
2012,07,29,11,11,19.60
2012,07,29,11,12,19.70
2012,07,29,11,13,19.80
2012,07,29,11,14,19.80
2012,07,29,11,15,19.90
2012,07,29,11,16,20.00
2012,07,29,11,17,19.90
2012,07,29,11,18,19.70
2012,07,29,11,19,19.60
2012,07,29,11,20,19.50
2012,07,29,11,21,19.40
2012,07,29,11,22,19.30
2012,07,29,11,23,19.30
2012,07,29,11,24,19.40
2012,07,29,11,25,19.40
2012,07,29,11,26,19.50
2012,07,29,11,27,19.50
2012,07,29,11,28,19.40
2012,07,29,11,29,19.50
2012,07,29,11,30,19.50
2012,07,29,11,31,19.60
2012,07,29,11,32,19.70
2012,07,29,11,33,19.70
2012,07,29,11,34,19.70
2012,07,29,11,35,19.70
2012,07,29,11,36,19.70
2012,07,29,11,37,19.70
2012,07,29,11,38,19.60
2012,07,29,11,39,19.60
2012,07,29,11,40,19.60
2012,07,29,11,41,19.60
2012,07,29,11,42,19.70
2012,07,29,11,43,19.70
2012,07,29,11,44,19.80
2012,07,29,11,45,19.90
2012,07,29,11,46,19.90
2012,07,29,11,47,19.90
2012,07,29,11,48,19.80
2012,07,29,11,49,19.90
2012,07,29,11,50,19.80
2012,07,29,11,51,19.90
2012,07,29,11,52,19.90
2012,07,29,11,53,20.00
2012,07,29,11,54,20.10
2012,07,29,11,55,20.00
2012,07,29,11,56,20.00
2012,07,29,11,57,20.10
2012,07,29,11,58,20.20
2012,07,29,11,59,20.20
2012,07,29,12,00,20.30
2012,07,29,12,01,20.40
2012,07,29,12,02,20.30
2012,07,29,12,03,20.40
2012,07,29,12,04,20.30
2012,07,29,12,05,20.40
2012,07,29,12,06,20.40
2012,07,29,12,07,20.40
2012,07,29,12,08,20.40
2012,07,29,12,09,20.40
2012,07,29,12,10,20.40
2012,07,29,12,11,20.40
2012,07,29,12,12,20.50
2012,07,29,12,13,20.50
2012,07,29,12,14,20.60
2012,07,29,12,15,20.60
2012,07,29,12,16,20.60
2012,07,29,12,17,20.50
2012,07,29,12,18,20.40
2012,07,29,12,19,20.50
2012,07,29,12,20,20.60
2012,07,29,12,21,20.50
2012,07,29,12,22,20.40
2012,07,29,12,23,20.50
2012,07,29,12,24,20.70
2012,07,29,12,25,20.50
2012,07,29,12,26,20.40
2012,07,29,12,27,20.60
2012,07,29,12,28,20.60
2012,07,29,12,29,20.50
2012,07,29,12,30,20.40
2012,07,29,12,31,20.30
2012,07,29,12,32,20.30
2012,07,29,12,33,20.40
2012,07,29,12,34,20.40
2012,07,29,12,35,20.40
2012,07,29,12,36,20.40
2012,07,29,12,37,20.50
2012,07,29,12,38,20.60
2012,07,29,12,39,20.60
2012,07,29,12,40,20.70
2012,07,29,12,41,20.70
2012,07,29,12,42,20.70
2012,07,29,12,43,20.60
2012,07,29,12,44,20.50
2012,07,29,12,45,20.30
2012,07,29,12,46,20.20
2012,07,29,12,47,20.30
2012,07,29,12,48,20.30
2012,07,29,12,49,20.20
2012,07,29,12,50,20.20
2012,07,29,12,51,20.30
2012,07,29,12,52,20.20
2012,07,29,12,53,20.30
2012,07,29,12,54,20.40
2012,07,29,12,55,20.60
2012,07,29,12,56,20.70
2012,07,29,12,57,20.70
2012,07,29,12,58,20.70
2012,07,29,12,59,20.70
2012,07,29,13,00,20.60
2012,07,29,13,01,20.50
2012,07,29,13,02,20.50
2012,07,29,13,03,20.40
2012,07,29,13,04,20.30
2012,07,29,13,05,20.30
2012,07,29,13,06,20.30
2012,07,29,13,07,20.40
2012,07,29,13,08,20.40
2012,07,29,13,09,20.50
2012,07,29,13,10,20.50
2012,07,29,13,11,20.50
2012,07,29,13,12,20.60
2012,07,29,13,13,20.60
2012,07,29,13,14,20.60
2012,07,29,13,15,20.60
2012,07,29,13,16,20.70
2012,07,29,13,17,20.80
2012,07,29,13,18,20.90
2012,07,29,13,19,21.00
2012,07,29,13,20,21.00
2012,07,29,13,21,21.00
2012,07,29,13,22,21.00
2012,07,29,13,23,21.10
2012,07,29,13,24,21.10
2012,07,29,13,25,21.00
2012,07,29,13,26,21.00
2012,07,29,13,27,21.00
2012,07,29,13,28,21.10
2012,07,29,13,29,21.10
2012,07,29,13,30,21.10
2012,07,29,13,31,21.10
2012,07,29,13,32,21.20
2012,07,29,13,33,21.20
2012,07,29,13,34,21.20
2012,07,29,13,35,21.20
2012,07,29,13,36,21.10
2012,07,29,13,37,21.10
2012,07,29,13,38,21.10
2012,07,29,13,39,21.30
2012,07,29,13,40,21.30
2012,07,29,13,41,21.30
2012,07,29,13,42,21.40
2012,07,29,13,43,21.60
2012,07,29,13,44,21.60
2012,07,29,13,45,21.50
2012,07,29,13,46,21.40
2012,07,29,13,47,21.50
2012,07,29,13,48,21.40
2012,07,29,13,49,21.40
2012,07,29,13,50,21.50
2012,07,29,13,51,21.50
2012,07,29,13,52,21.50
2012,07,29,13,53,21.50
2012,07,29,13,54,21.50
2012,07,29,13,55,21.40
2012,07,29,13,56,21.40
2012,07,29,13,57,21.50
2012,07,29,13,58,21.60
2012,07,29,13,59,21.60
2012,07,29,14,00,21.60
2012,07,29,14,01,21.70
2012,07,29,14,02,21.70
2012,07,29,14,03,21.80
2012,07,29,14,04,21.80
2012,07,29,14,05,21.80
2012,07,29,14,06,21.80
2012,07,29,14,07,21.80
2012,07,29,14,08,21.80
2012,07,29,14,09,21.80
2012,07,29,14,10,21.80
2012,07,29,14,11,21.80
2012,07,29,14,12,21.70
2012,07,29,14,13,21.60
2012,07,29,14,14,21.70
2012,07,29,14,15,21.60
2012,07,29,14,16,21.40
2012,07,29,14,17,21.40
2012,07,29,14,18,21.50
2012,07,29,14,19,21.60
2012,07,29,14,20,21.60
2012,07,29,14,21,21.70
2012,07,29,14,22,21.70
2012,07,29,14,23,21.70
2012,07,29,14,24,21.70
2012,07,29,14,25,21.70
2012,07,29,14,26,21.80
2012,07,29,14,27,21.80
2012,07,29,14,28,21.80
2012,07,29,14,29,21.80
2012,07,29,14,30,21.80
2012,07,29,14,31,21.80
2012,07,29,14,32,21.80
2012,07,29,14,33,21.80
2012,07,29,14,34,21.80
2012,07,29,14,35,21.80
2012,07,29,14,36,21.90
2012,07,29,14,37,21.90
2012,07,29,14,38,22.00
2012,07,29,14,39,21.90
2012,07,29,14,40,21.80
2012,07,29,14,41,21.80
2012,07,29,14,42,21.80
2012,07,29,14,43,21.80
2012,07,29,14,44,21.80
2012,07,29,14,45,21.90
2012,07,29,14,46,21.80
2012,07,29,14,47,21.80
2012,07,29,14,48,21.80
2012,07,29,14,49,21.90
2012,07,29,14,50,21.80
2012,07,29,14,51,21.80
2012,07,29,14,52,21.90
2012,07,29,14,53,21.90
2012,07,29,14,54,22.00
2012,07,29,14,55,22.00
2012,07,29,14,56,21.90
2012,07,29,14,57,21.90
2012,07,29,14,58,21.80
2012,07,29,14,59,21.80
2012,07,29,15,00,21.90
2012,07,29,15,01,22.00
2012,07,29,15,02,22.10
2012,07,29,15,03,22.20
2012,07,29,15,04,22.10
2012,07,29,15,05,22.20
2012,07,29,15,06,22.40
2012,07,29,15,07,22.40
2012,07,29,15,08,22.60
2012,07,29,15,09,22.60
2012,07,29,15,10,22.70
2012,07,29,15,11,22.70
2012,07,29,15,12,22.70
2012,07,29,15,13,22.70
2012,07,29,15,14,22.70
2012,07,29,15,15,22.70
2012,07,29,15,16,22.80
2012,07,29,15,17,22.80
2012,07,29,15,18,22.80
2012,07,29,15,19,22.90
2012,07,29,15,20,22.80
2012,07,29,15,21,22.80
2012,07,29,15,22,22.90
2012,07,29,15,23,23.00
2012,07,29,15,24,23.10
2012,07,29,15,25,23.20
2012,07,29,15,26,23.00
2012,07,29,15,27,22.90
2012,07,29,15,28,22.80
2012,07,29,15,29,22.60
2012,07,29,15,30,22.40
2012,07,29,15,31,22.40
2012,07,29,15,32,22.40
2012,07,29,15,33,22.50
2012,07,29,15,34,22.60
2012,07,29,15,35,22.70
2012,07,29,15,36,22.60
2012,07,29,15,37,22.60
2012,07,29,15,38,22.60
2012,07,29,15,39,22.60
2012,07,29,15,40,22.60
2012,07,29,15,41,22.60
2012,07,29,15,42,22.70
2012,07,29,15,43,22.70
2012,07,29,15,44,22.70
2012,07,29,15,45,22.60
2012,07,29,15,46,22.70
2012,07,29,15,47,22.60
2012,07,29,15,48,22.50
2012,07,29,15,49,22.50
2012,07,29,15,50,22.50
2012,07,29,15,51,22.50
2012,07,29,15,52,22.40
2012,07,29,15,53,22.30
2012,07,29,15,54,22.30
2012,07,29,15,55,22.30
2012,07,29,15,56,22.40
2012,07,29,15,57,22.50
2012,07,29,15,58,22.60
2012,07,29,15,59,22.70
2012,07,29,16,00,22.70
2012,07,29,16,01,22.70
2012,07,29,16,02,22.70
2012,07,29,16,03,22.70
2012,07,29,16,04,22.80
2012,07,29,16,05,22.90
2012,07,29,16,06,22.90
2012,07,29,16,07,22.90
2012,07,29,16,08,23.00
2012,07,29,16,09,23.00
2012,07,29,16,10,23.10
2012,07,29,16,11,23.10
2012,07,29,16,12,23.10
2012,07,29,16,13,23.00
2012,07,29,16,14,22.90
2012,07,29,16,15,22.80
2012,07,29,16,16,22.80
2012,07,29,16,17,22.70
2012,07,29,16,18,22.70
2012,07,29,16,19,22.70
2012,07,29,16,20,22.70
2012,07,29,16,21,22.80
2012,07,29,16,22,22.90
2012,07,29,16,23,23.10
2012,07,29,16,24,23.00
2012,07,29,16,25,23.00
2012,07,29,16,26,23.10
2012,07,29,16,27,23.20
2012,07,29,16,28,23.30
2012,07,29,16,29,23.40
2012,07,29,16,30,23.40
2012,07,29,16,31,23.40
2012,07,29,16,32,23.30
2012,07,29,16,33,23.30
2012,07,29,16,34,23.30
2012,07,29,16,35,23.10
2012,07,29,16,36,23.00
2012,07,29,16,37,22.90
2012,07,29,16,38,22.90
2012,07,29,16,39,23.00
2012,07,29,16,40,23.20
2012,07,29,16,41,23.40
2012,07,29,16,42,23.40
2012,07,29,16,43,23.40
2012,07,29,16,44,23.60
2012,07,29,16,45,23.70
2012,07,29,16,46,23.70
2012,07,29,16,47,23.70
2012,07,29,16,48,23.60
2012,07,29,16,49,23.50
2012,07,29,16,50,23.40
2012,07,29,16,51,23.40
2012,07,29,16,52,23.30
2012,07,29,16,53,23.40
2012,07,29,16,54,23.40
2012,07,29,16,55,23.50
2012,07,29,16,56,23.50
2012,07,29,16,57,23.50
2012,07,29,16,58,23.50
2012,07,29,16,59,23.50
2012,07,29,17,00,23.40
2012,07,29,17,01,23.30
2012,07,29,17,02,23.30
2012,07,29,17,03,23.30
2012,07,29,17,04,23.30
2012,07,29,17,05,23.30
2012,07,29,17,06,23.30
2012,07,29,17,07,23.30
2012,07,29,17,08,23.30
2012,07,29,17,09,23.30
2012,07,29,17,10,23.40
2012,07,29,17,11,23.40
2012,07,29,17,12,23.50
2012,07,29,17,13,23.50
2012,07,29,17,14,23.60
2012,07,29,17,15,23.70
2012,07,29,17,16,23.70
2012,07,29,17,17,23.80
2012,07,29,17,18,23.80
2012,07,29,17,19,23.80
2012,07,29,17,20,23.80
2012,07,29,17,21,23.70
2012,07,29,17,22,23.70
2012,07,29,17,23,23.70